Date String (YYYY-MM-DD hh:mm:ss) UTC,Instrument flags,Ambient pressure (hPa),Sample flow (lpm),Bypass flow (lpm),Sample temperature (°C),Ambient temperature (°C),ASC tube jacket temperature (°C),LED temperature (°C),Box temperature (°C),Sample RH (%),Span deviation,Mass concentration (μg/m³),Mass concentration (μg/m³),Mass concentration (μg/m³)
DateTimeUTC,F1_M11,P_M11,Q1_M11,Q2_M11,T1_M11,T2_M11,T3_M11,T4_M11,T5_M11,U1_M11,ZSPAN_M11,X0_M11,X2_M11,X1_M11
2022-09-15 18:00:00,,0826.8,5.01,0.00,30.0,26.7,00.0,38.6,31.7,28.6,0000.0,0006.45,0003.22,0002.72
2022-09-15 18:01:00,,0826.8,4.99,0.00,29.9,27.0,00.0,38.6,31.5,28.9,0000.0,0006.55,0003.24,0002.72
2022-09-15 18:02:00,,0826.8,5.01,0.00,29.8,27.3,00.0,38.5,31.5,29.0,0000.0,0006.45,0003.23,0002.71
2022-09-15 18:03:00,,0826.8,4.99,0.00,29.8,27.6,00.0,38.5,31.5,29.3,0000.0,0006.37,0003.23,0002.71
2022-09-15 18:04:00,,0826.7,5.01,0.00,29.8,27.9,00.0,38.5,31.6,29.3,0000.0,0006.55,0003.24,0002.70
2022-09-15 18:05:00,,0826.7,5.00,0.00,29.8,28.1,00.0,38.5,31.7,28.8,0000.0,0006.45,0003.20,0002.69
2022-09-15 18:06:00,,0826.8,5.01,0.00,29.8,28.3,00.0,38.5,31.7,28.9,0000.0,0006.64,0003.17,0002.70
2022-09-15 18:07:00,,0826.7,4.99,0.00,29.9,28.4,00.0,38.5,31.8,29.0,0000.0,0007.29,0003.16,0002.70
2022-09-15 18:08:00,,0826.7,5.00,0.00,29.9,28.6,00.0,38.5,31.7,29.2,0000.0,0007.54,0003.16,0002.67
2022-09-15 18:09:00,,0826.7,5.01,0.00,29.9,28.7,00.0,38.6,31.9,29.3,0000.0,0007.63,0003.15,0002.65
2022-09-15 18:10:00,,0826.7,4.99,0.00,30.0,28.8,00.0,38.6,31.9,29.1,0000.0,0007.01,0003.16,0002.65
2022-09-15 18:11:00,,0826.7,4.99,0.00,30.0,28.9,00.0,38.6,31.9,28.7,0000.0,0007.08,0003.17,0002.66
2022-09-15 18:12:00,,0826.7,5.01,0.00,30.0,29.0,00.0,38.6,32.0,28.8,0000.0,0007.10,0003.14,0002.64
2022-09-15 18:13:00,,0826.7,5.00,0.00,30.1,29.1,00.0,38.7,32.0,28.4,0000.0,0007.65,0003.15,0002.64
2022-09-15 18:14:00,,0826.7,5.00,0.00,30.1,28.5,00.0,38.7,32.0,28.4,0000.0,0008.30,0003.17,0002.64
2022-09-15 18:15:00,,0826.7,5.01,0.00,30.1,27.1,00.0,38.6,31.9,28.6,0000.0,0008.74,0003.17,0002.66
2022-09-15 18:16:00,,0826.6,4.99,0.00,30.0,26.4,00.0,38.6,31.8,29.0,0000.0,0008.82,0003.20,0002.68
2022-09-15 18:17:00,,0826.7,5.00,0.00,30.0,26.5,00.0,38.6,31.6,29.0,0000.0,0009.24,0003.21,0002.66
2022-09-15 18:18:00,,0826.6,5.01,0.00,29.8,26.8,00.0,38.5,31.4,29.1,0000.0,0009.34,0003.21,0002.66
2022-09-15 18:19:00,,0826.5,5.00,0.00,29.8,27.2,00.0,38.5,31.5,28.8,0000.0,0009.88,0003.21,0002.67
2022-09-15 18:20:00,,0826.5,5.00,0.00,29.8,27.5,00.0,38.5,31.5,28.7,0000.0,0009.90,0003.21,0002.70
2022-09-15 18:21:00,,0826.5,5.01,0.00,29.8,27.8,00.0,38.5,31.6,28.8,0000.0,0009.98,0003.23,0002.71
2022-09-15 18:22:00,,0826.5,5.01,0.00,29.8,28.0,00.0,38.5,31.6,28.7,0000.0,0009.87,0003.21,0002.70
2022-09-15 18:23:00,,0826.5,4.99,0.00,29.8,28.2,00.0,38.5,31.7,28.6,0000.0,0009.84,0003.21,0002.69
2022-09-15 18:24:00,,0826.5,5.01,0.00,29.8,28.4,00.0,38.5,31.7,28.9,0000.0,0009.57,0003.22,0002.67
2022-09-15 18:25:00,,0826.5,4.99,0.00,29.8,28.5,00.0,38.5,31.7,28.8,0000.0,0008.95,0003.18,0002.67
2022-09-15 18:26:00,,0826.5,5.01,0.00,29.9,28.6,00.0,38.5,31.8,29.0,0000.0,0008.36,0003.19,0002.66
2022-09-15 18:27:00,,0826.6,5.00,0.00,29.9,28.7,00.0,38.5,31.8,28.9,0000.0,0008.29,0003.18,0002.66
2022-09-15 18:28:00,,0826.6,4.99,0.00,29.9,28.8,00.0,38.5,31.9,28.7,0000.0,0007.82,0003.18,0002.67
2022-09-15 18:29:00,,0826.6,5.02,0.00,30.0,28.9,00.0,38.6,31.9,27.9,0000.0,0007.04,0003.18,0002.68
2022-09-15 18:30:00,,0826.7,5.00,0.00,30.0,28.9,00.0,38.6,31.9,27.9,0000.0,0005.95,0003.17,0002.67
2022-09-15 18:31:00,,0826.7,4.99,0.00,30.0,29.0,00.0,38.6,32.0,28.0,0000.0,0005.52,0003.19,0002.65
2022-09-15 18:32:00,,0826.7,5.02,0.00,30.1,29.1,00.0,38.7,32.0,27.9,0000.0,0005.82,0003.19,0002.64
2022-09-15 18:33:00,,0826.6,4.99,0.00,30.1,28.7,00.0,38.7,32.0,27.9,0000.0,0005.85,0003.20,0002.65
2022-09-15 18:34:00,,0826.6,5.00,0.00,30.1,27.4,00.0,38.7,31.9,27.9,0000.0,0006.10,0003.23,0002.66
2022-09-15 18:35:00,,0826.6,5.00,0.00,30.0,26.4,00.0,38.6,31.8,28.2,0000.0,0006.15,0003.23,0002.67
2022-09-15 18:36:00,,0826.6,4.99,0.00,30.0,26.4,00.0,38.6,31.7,28.4,0000.0,0006.35,0003.29,0002.69
2022-09-15 18:37:00,,0826.6,5.00,0.00,29.9,26.7,00.0,38.6,31.5,28.5,0000.0,0007.72,0003.32,0002.69
2022-09-15 18:38:00,,0826.6,5.00,0.00,29.8,27.1,00.0,38.5,31.5,28.7,0000.0,0008.34,0003.34,0002.70
2022-09-15 18:39:00,,0826.5,5.01,0.00,29.8,27.5,00.0,38.5,31.5,28.8,0000.0,0008.39,0003.35,0002.69
2022-09-15 18:40:00,,0826.5,5.00,0.00,29.8,27.7,00.0,38.5,31.5,28.9,0000.0,0008.45,0003.38,0002.70
2022-09-15 18:41:00,,0826.5,4.99,0.00,29.8,27.9,00.0,38.5,31.6,29.0,0000.0,0008.49,0003.40,0002.72
2022-09-15 18:42:00,,0826.5,5.01,0.00,29.8,28.2,00.0,38.5,31.6,28.9,0000.0,0008.17,0003.40,0002.72
2022-09-15 18:43:00,,0826.5,4.99,0.00,29.8,28.3,00.0,38.5,31.7,29.0,0000.0,0008.00,0003.41,0002.72
2022-09-15 18:44:00,,0826.5,5.01,0.00,29.8,28.5,00.0,38.5,31.7,29.1,0000.0,0008.21,0003.42,0002.73
2022-09-15 18:45:00,,0826.5,4.99,0.00,29.9,28.6,00.0,38.5,31.8,28.8,0000.0,0008.26,0003.41,0002.73
2022-09-15 18:46:00,,0826.5,5.01,0.00,29.9,28.7,00.0,38.5,31.8,28.3,0000.0,0008.17,0003.41,0002.75
2022-09-15 18:47:00,,0826.4,5.00,0.00,29.9,28.8,00.0,38.6,31.9,28.5,0000.0,0008.04,0003.37,0002.76
2022-09-15 18:48:00,,0826.5,5.00,0.00,30.0,28.9,00.0,38.6,31.9,28.7,0000.0,0006.93,0003.33,0002.77
2022-09-15 18:49:00,,0826.5,5.01,0.00,30.0,28.9,00.0,38.6,31.9,28.4,0000.0,0006.18,0003.32,0002.77
2022-09-15 18:50:00,,0826.5,4.99,0.00,30.0,29.0,00.0,38.6,32.0,28.1,0000.0,0006.27,0003.34,0002.78
2022-09-15 18:51:00,,0826.5,4.99,0.00,30.1,29.1,00.0,38.7,32.0,28.0,0000.0,0006.22,0003.32,0002.79
2022-09-15 18:52:00,,0826.5,5.01,0.00,30.1,29.1,00.0,38.7,32.0,28.1,0000.0,0006.63,0003.34,0002.80
2022-09-15 18:53:00,,0826.5,5.00,0.00,30.1,28.4,00.0,38.7,32.1,28.8,0000.0,0007.68,0003.38,0002.83
2022-09-15 18:54:00,,0826.5,5.00,0.00,30.1,27.1,00.0,38.7,31.9,28.6,0000.0,0008.10,0003.38,0002.86
2022-09-15 18:55:00,,0826.5,5.00,0.00,30.0,26.4,00.0,38.6,31.8,28.3,0000.0,0008.55,0003.38,0002.89
2022-09-15 18:56:00,,0826.5,4.99,0.00,30.0,26.5,00.0,38.6,31.6,28.6,0000.0,0008.45,0003.41,0002.91
2022-09-15 18:57:00,,0826.5,5.00,0.00,29.9,26.8,00.0,38.6,31.5,28.6,0000.0,0008.59,0003.44,0002.93
2022-09-15 18:58:00,,0826.5,4.99,0.00,29.8,27.2,00.0,38.5,31.5,28.5,0000.0,0008.64,0003.46,0002.94
2022-09-15 18:59:00,,0826.5,5.00,0.00,29.8,27.6,00.0,38.5,31.6,28.4,0000.0,0008.63,0003.47,0002.94
